Rensselaer, IN

10:27 PM CST on December 15, 2017 (GMT -0600)
Jasper County

Weather History for KRZL - December, 2011

Change the Weather History Date:

Sunday, December 4, 2011

  Actual Average (KIKK) Record (KIKK)
Temperature  
Mean Temperature 44 °F -  
Max Temperature 51 °F 39 °F 63 °F (1973)
Min Temperature 37 °F 23 °F -3 °F (1991)
Degree Days  
Heating Degree Days 21    
Moisture  
Dew Point 42 °F    
Average Humidity 89    
Maximum Humidity 100    
Minimum Humidity 76    
Precipitation  
Precipitation 0.04 in - - ()
Sea Level Pressure  
Sea Level Pressure 30.06 in    
Wind  
Wind Speed 17 mph (SW)    
Max Wind Speed 25 mph    
Max Gust Speed 36 mph    
Visibility 9 miles    
Events Rain    
Averages and records for this station are not official NWS values.
T = Trace of Precipitation, MM = Missing Value Source: NWS Daily Summary

Daily Weather History Graph

Daily Weather History Graph

Search for Another Location

Airport or City:

Trip Planner

Search our weather history database for the weather conditions in past years. The results will help you decide how hot, cold, wet, or windy it might be!

Date:

Astronomy

Dec. 04, 2011 Rise Set
Actual Time 6:56 AM CST 4:20 PM CST
Civil Twilight 6:26 AM CST 4:51 PM CST
Nautical Twilight 5:51 AM CST 5:25 PM CST
Astronomical Twilight 5:18 AM CST 5:58 PM CST
Moon 12:52 PM CST (12/4) 1:19 AM CST (12/4)
Length of Visible Light 10h 25m
Length of Day
9h 23m
Waxing Gibbous, 72% of the Moon is Illuminated
Dec 4
Waxing Gibbous
Dec 10
Full
Dec 17
Last Quarter
Dec 24
New
Jan 1
First Quarter

Hourly Weather History & Observations

Time (CST) Temp. Windchill Dew Point Humidity Pressure Visibility Wind Dir Wind Speed Gust Speed Precip Events Conditions
12:15 AM 48.2 °F - 41.0 °F 76% 29.99 in 10.0 mi South 19.6 mph 25.3 mph N/A Rain Rain
12:35 AM 46.4 °F 39.0 °F 42.8 °F 87% 29.98 in 10.0 mi South 19.6 mph 26.5 mph N/A   Overcast
12:55 AM 46.4 °F 38.7 °F 42.8 °F 87% 29.98 in 10.0 mi South 20.7 mph 26.5 mph N/A   Overcast
1:15 AM 48.2 °F - 42.8 °F 82% 29.96 in 10.0 mi South 19.6 mph 25.3 mph N/A   Overcast
1:35 AM 48.2 °F - 42.8 °F 82% 29.97 in 10.0 mi South 20.7 mph 31.1 mph N/A   Overcast
1:55 AM 50.0 °F - 42.8 °F 76% 29.97 in 10.0 mi South 24.2 mph 31.1 mph N/A   Drizzle
2:15 AM 48.2 °F - 42.8 °F 82% 29.97 in 10.0 mi South 25.3 mph 35.7 mph N/A Rain Light Rain
2:35 AM 48.2 °F - 44.6 °F 87% 29.98 in 10.0 mi South 19.6 mph 31.1 mph N/A Rain Light Rain
3:15 AM 48.2 °F - 44.6 °F 87% 29.98 in 10.0 mi South 21.9 mph 27.6 mph N/A Rain Light Rain
3:35 AM 48.2 °F - 44.6 °F 87% 29.97 in 10.0 mi South 25.3 mph 31.1 mph N/A Rain Rain
3:55 AM 48.2 °F - 44.6 °F 87% 29.96 in 7.0 mi South 21.9 mph 31.1 mph 0.01 in Rain Rain
4:15 AM 48.2 °F - 44.6 °F 87% 29.97 in 10.0 mi South 23.0 mph 29.9 mph N/A Rain Light Rain
4:35 AM 48.2 °F - 44.6 °F 87% 29.95 in 10.0 mi South 21.9 mph 33.4 mph N/A Rain Light Rain
4:55 AM 50.0 °F - 46.4 °F 87% 29.96 in 10.0 mi South 18.4 mph 26.5 mph N/A   Overcast
5:15 AM 50.0 °F - 46.4 °F 87% 29.97 in 10.0 mi South 18.4 mph - N/A   Overcast
5:35 AM 50.0 °F - 46.4 °F 87% 29.96 in 10.0 mi South 16.1 mph - N/A   Overcast
6:15 AM 50.0 °F - 46.4 °F 87% 29.97 in 10.0 mi South 18.4 mph 23.0 mph N/A   Overcast
6:35 AM 50.0 °F - 46.4 °F 87% 29.98 in 10.0 mi South 18.4 mph 25.3 mph N/A   Overcast
6:55 AM 50.0 °F - 46.4 °F 87% 29.97 in 10.0 mi South 19.6 mph 24.2 mph N/A   Overcast
7:15 AM 50.0 °F - 48.2 °F 94% 29.98 in 10.0 mi South 23.0 mph 29.9 mph N/A Rain Rain
7:35 AM 50.0 °F - 48.2 °F 94% 29.97 in 10.0 mi South 19.6 mph 26.5 mph N/A   Overcast
7:55 AM 50.0 °F - 48.2 °F 94% 29.98 in 10.0 mi South 18.4 mph 24.2 mph N/A   Overcast
8:15 AM 51.8 °F - 48.2 °F 88% 29.98 in 10.0 mi South 19.6 mph 25.3 mph N/A   Overcast
8:35 AM 51.8 °F - 48.2 °F 88% 29.98 in 10.0 mi South 18.4 mph 24.2 mph N/A   Overcast
8:55 AM 51.8 °F - 48.2 °F 88% 30.01 in 10.0 mi South 20.7 mph - N/A Rain Light Rain
9:15 AM 51.8 °F - 48.2 °F 88% 30.03 in 5.0 mi SSW 23.0 mph 28.8 mph N/A Rain Light Rain
9:35 AM 51.8 °F - 50.0 °F 94% 30.02 in 10.0 mi South 17.3 mph 24.2 mph 0.01 in Rain Rain
9:55 AM 51.8 °F - 50.0 °F 94% 30.01 in 10.0 mi South 19.6 mph 25.3 mph 0.01 in   Overcast
10:15 AM 51.8 °F - 50.0 °F 94% 30.01 in 3.0 mi South 18.4 mph 24.2 mph 0.01 in Rain Light Rain
10:35 AM 50.0 °F - 48.2 °F 94% 30.04 in 5.0 mi WSW 20.7 mph 32.2 mph 0.02 in Rain Rain
10:55 AM 48.2 °F - 44.6 °F 87% 30.04 in 5.0 mi WSW 12.7 mph 20.7 mph 0.02 in   Light Drizzle
11:15 AM 48.2 °F - 44.6 °F 87% 30.05 in 10.0 mi WSW 12.7 mph 19.6 mph N/A   Overcast
11:35 AM 46.4 °F 40.4 °F 44.6 °F 93% 30.06 in 10.0 mi WSW 13.8 mph 20.7 mph N/A   Light Drizzle
11:55 AM 46.4 °F 40.4 °F 42.8 °F 87% 30.05 in 10.0 mi SW 13.8 mph - N/A   Light Drizzle
12:15 PM 46.4 °F 41.9 °F 42.8 °F 87% 30.06 in 10.0 mi WSW 9.2 mph - N/A   Drizzle
12:55 PM 44.6 °F 38.1 °F 41.0 °F 87% 30.05 in 10.0 mi West 13.8 mph - N/A   Overcast
1:15 PM 44.6 °F 37.8 °F 41.0 °F 87% 30.08 in 10.0 mi West 15.0 mph - N/A   Overcast
1:35 PM 42.8 °F 37.0 °F 41.0 °F 93% 30.08 in 10.0 mi WSW 10.4 mph - N/A   Overcast
1:55 PM 42.8 °F 37.5 °F 41.0 °F 93% 30.07 in 10.0 mi West 9.2 mph 16.1 mph N/A   Overcast
2:15 PM 41.0 °F 34.3 °F 41.0 °F 100% 30.09 in 10.0 mi West 11.5 mph - N/A   Light Drizzle
2:35 PM 41.0 °F 35.2 °F 37.4 °F 87% 30.09 in 10.0 mi WSW 9.2 mph - N/A   Overcast
3:15 PM 41.0 °F 35.2 °F 37.4 °F 87% 30.10 in 7.0 mi West 9.2 mph - N/A   Overcast
3:35 PM 41.0 °F 33.5 °F 37.4 °F 87% 30.13 in 7.0 mi West 13.8 mph - N/A   Overcast
3:55 PM 39.2 °F 32.0 °F 37.4 °F 93% 30.14 in 7.0 mi West 11.5 mph - N/A   Overcast
4:15 PM 39.2 °F 33.6 °F 37.4 °F 93% 30.15 in 10.0 mi West 8.1 mph - N/A   Overcast
4:35 PM 39.2 °F 33.0 °F 37.4 °F 93% 30.16 in 7.0 mi West 9.2 mph - N/A   Overcast
4:55 PM 39.2 °F 33.6 °F 35.6 °F 87% 30.16 in 7.0 mi West 8.1 mph - N/A   Overcast
5:15 PM 39.2 °F 35.0 °F 37.4 °F 93% 30.17 in 7.0 mi West 5.8 mph - N/A   Overcast
5:35 PM 39.2 °F 33.6 °F 35.6 °F 87% 30.18 in 7.0 mi West 8.1 mph - N/A   Overcast
5:55 PM 37.4 °F 31.4 °F 35.6 °F 93% 30.18 in 7.0 mi WNW 8.1 mph - N/A   Overcast
6:15 PM 37.4 °F 32.1 °F 35.6 °F 93% 30.18 in 7.0 mi NW 6.9 mph - N/A   Overcast
6:35 PM 37.4 °F 32.1 °F 35.6 °F 93% 30.19 in 7.0 mi WNW 6.9 mph - N/A   Overcast
6:55 PM 37.4 °F 32.1 °F 35.6 °F 93% 30.21 in 7.0 mi WNW 6.9 mph - N/A   Overcast
7:15 PM 37.4 °F 32.8 °F 35.6 °F 93% 30.21 in 7.0 mi WNW 5.8 mph - N/A   Overcast
7:35 PM 37.4 °F 33.8 °F 35.6 °F 93% 30.20 in 7.0 mi WNW 4.6 mph - N/A   Overcast
7:55 PM 37.4 °F 33.8 °F 35.6 °F 93% 30.21 in 7.0 mi WNW 4.6 mph - N/A   Overcast
8:15 PM 37.4 °F 32.8 °F 35.6 °F 93% 30.21 in 7.0 mi WNW 5.8 mph - N/A   Overcast
8:35 PM 37.4 °F 33.8 °F 35.6 °F 93% 30.23 in 7.0 mi WNW 4.6 mph - N/A   Overcast
8:55 PM 37.4 °F 34.9 °F 35.6 °F 93% 30.22 in 7.0 mi NW 3.5 mph - N/A   Overcast
9:15 PM 37.4 °F 32.8 °F 35.6 °F 93% 30.23 in 7.0 mi NW 5.8 mph - N/A   Overcast
9:35 PM 37.4 °F 33.8 °F 33.8 °F 87% 30.23 in 7.0 mi NW 4.6 mph - N/A   Overcast
9:55 PM 37.4 °F 32.8 °F 33.8 °F 87% 30.23 in 7.0 mi WNW 5.8 mph - N/A   Overcast
10:15 PM 37.4 °F 32.1 °F 33.8 °F 87% 30.24 in 7.0 mi WNW 6.9 mph - N/A   Overcast
10:55 PM 35.6 °F 30.7 °F 33.8 °F 93% 30.23 in 7.0 mi NW 5.8 mph - N/A   Overcast
11:15 PM 35.6 °F 29.9 °F 33.8 °F 93% 30.22 in 7.0 mi NW 6.9 mph - N/A   Overcast
11:35 PM 35.6 °F 29.2 °F 33.8 °F 93% 30.22 in 7.0 mi NW 8.1 mph - N/A   Overcast
11:55 PM 35.6 °F 29.2 °F 33.8 °F 93% 30.23 in 7.0 mi NW 8.1 mph - N/A   Overcast